DW5678 Weather Reports


time (UTC)temp
C
wind
direction
speed
KPH
gust
KPH
rain 1hr
cm
rain 24hr
cm
rain mn
cm
humidity
%
barometer
mb
20260508012804 15 30 0.0 1.6 0.00 0.00 0.00 89 1017.5
20260508010804 15 30 0.0 0.0 0.00 0.00 0.00 88 1017.7
20260508005804 15 30 0.0 0.0 0.00 0.00 0.00 89 1017.7
20260508004804 15 30 0.0 3.2 0.00 0.00 0.00 89 1017.8
20260508003804 15 30 0.0 0.0 0.00 0.00 0.00 89 1017.8
20260508001804 15 30 0.0 1.6 0.00 0.00 0.00 88 1017.8
20260508000804 15 30 0.0 0.0 0.00 0.00 0.00 89 1017.7
20260507234804 16 30 0.0 0.0 0.00 0.00 0.00 89 1017.9
20260507233804 16 30 0.0 0.0 0.00 0.00 0.00 89 1017.9
20260507232804 16 30 0.0 0.0 0.00 0.00 0.00 89 1018.0
20260507231804 16 30 0.0 0.0 0.00 0.00 0.00 90 1018.2
20260507230804 16 30 0.0 0.0 0.00 0.00 0.00 90 1018.2
20260507225804 16 30 0.0 1.6 0.00 0.00 0.00 89 1018.4
20260507224804 16 30 0.0 1.6 0.00 0.00 0.00 90 1018.6
20260507223804 16 30 0.0 1.6 0.00 0.00 0.00 90 1018.6
20260507222804 16 30 0.0 0.0 0.00 0.00 0.00 90 1018.5
20260507221804 16 30 0.0 0.0 0.00 0.00 0.00 89 1018.4
20260507214804 16 30 0.0 0.0 0.00 0.00 0.00 89 1018.5
20260507213804 16 30 0.0 1.6 0.00 0.00 0.00 88 1018.4
20260507212804 16 30 0.0 3.2 0.00 0.00 0.00 88 1018.4
20260507211804 16 30 0.0 1.6 0.00 0.00 0.00 88 1018.3
20260507204805 16 30 0.0 3.2 0.00 0.00 0.00 89 1018.6
20260507203804 16 30 0.0 8.0 0.00 0.00 0.00 90 1018.5
20260507202804 16 204 3.2 4.8 0.00 0.00 0.00 91 1018.5
20260507201804 16 205 0.0 0.0 0.00 0.00 0.00 92 1018.5
20260507200804 16 205 0.0 0.0 0.00 0.00 0.00 92 1018.6
20260507195804 16 205 0.0 3.2 0.00 0.00 0.00 92 1018.5
20260507194804 16 204 0.0 3.2 0.00 0.00 0.00 91 1018.5
20260507192805 16 204 0.0 0.0 0.00 0.00 0.00 92 1018.4
20260507191804 16 204 0.0 0.0 0.00 0.00 0.00 92 1018.4
20260507190804 16 204 0.0 1.6 0.00 0.00 0.00 91 1018.5
20260507185804 16 204 0.0 3.2 0.00 0.00 0.00 90 1018.4
20260507183805 17 204 0.0 3.2 0.00 0.00 0.00 87 1018.2
20260507182804 17 204 0.0 1.6 0.00 0.00 0.00 86 1018.2
20260507181804 17 204 0.0 3.2 0.00 0.00 0.00 86 1018.0
20260507180804 17 204 0.0 0.0 0.00 0.00 0.00 86 1017.9
20260507174804 17 204 0.0 0.0 0.00 0.00 0.00 86 1017.6
20260507173804 17 204 0.0 4.8 0.00 0.00 0.00 86 1017.6
20260507172821 17 204 3.2 4.8 0.00 0.00 0.00 86 1017.6
20260507171804 17 204 0.0 3.2 0.00 0.00 0.00 85 1017.7
20260507170804 17 204 0.0 1.6 0.00 0.00 0.00 85 1017.6
20260507165805 18 204 1.6 4.8 0.00 0.00 0.00 85 1017.6
20260507163804 17 204 0.0 0.0 0.00 0.00 0.00 86 1017.6
20260507162804 17 204 0.0 4.8 0.00 0.00 0.00 85 1017.6
20260507160805 18 204 0.0 1.6 0.00 0.00 0.00 85 1017.6
20260507155804 17 204 0.0 3.2 0.00 0.00 0.00 85 1017.6
20260507154804 17 204 0.0 3.2 0.00 0.00 0.00 86 1017.6
20260507153804 17 204 1.6 3.2 0.00 0.00 0.00 85 1017.6
20260507152804 17 204 0.0 4.8 0.00 0.00 0.00 86 1017.5
20260507151805 17 205 1.6 3.2 0.00 0.00 0.00 87 1017.4
20260507150805 17 205 0.0 11.3 0.00 0.00 0.00 87 1017.5
20260507145805 17 166 1.6 8.0 0.00 0.00 0.00 87 1017.6
20260507144805 17 166 1.6 4.8 0.00 0.00 0.00 85 1017.7
20260507143804 17 166 1.6 4.8 0.00 0.00 0.00 85 1017.7
20260507142805 17 166 1.6 4.8 0.00 0.00 0.00 85 1017.7
20260507141805 17 167 1.6 4.8 0.00 0.00 0.00 86 1017.8
20260507140805 17 167 0.0 4.8 0.00 0.00 0.00 87 1018.0
20260507135805 17 167 1.6 8.0 0.00 0.00 0.00 85 1018.1
20260507134804 17 167 0.0 8.0 0.00 0.00 0.00 84 1018.2
20260507133805 18 167 1.6 4.8 0.00 0.00 0.00 83 1018.2
20260507132805 18 167 4.8 8.0 0.00 0.00 0.00 82 1018.3
20260507131804 18 167 3.2 8.0 0.00 0.00 0.00 82 1018.5
20260507130804 18 167 3.2 4.8 0.00 0.00 0.00 82 1018.7
20260507124804 17 167 1.6 8.0 0.00 0.00 0.00 83 1019.0
20260507123805 18 180 1.6 8.0 0.00 0.00 0.00 82 1018.9
20260507121805 18 244 4.8 9.7 0.00 0.00 0.00 78 1019.1
20260507115805 18 245 4.8 9.7 0.00 0.00 0.00 74 1019.1
20260507114804 19 245 3.2 9.7 0.00 0.00 0.00 75 1019.1
20260507112805 19 216 4.8 8.0 0.00 0.00 0.00 73 1019.1
20260507111805 18 217 6.4 12.9 0.00 0.00 0.00 73 1019.1
20260507105805 18 232 9.7 12.9 0.00 0.00 0.00 73 1019.0
20260507104805 18 228 8.0 11.3 0.00 0.00 0.00 72 1019.0
20260507103805 18 202 1.6 9.7 0.00 0.00 0.00 72 1018.9
20260507102804 19 228 3.2 11.3 0.00 0.00 0.00 70 1018.9
20260507101804 20 196 3.2 12.9 0.00 0.00 0.00 67 1018.9
20260507095805 19 204 1.6 9.7 0.00 0.00 0.00 63 1018.8
20260507094804 20 185 3.2 9.7 0.00 0.00 0.00 68 1018.7
20260507093804 19 207 1.6 9.7 0.00 0.00 0.00 70 1018.7
20260507092805 19 212 4.8 9.7 0.00 0.00 0.00 69 1018.7
20260507091805 19 152 3.2 9.7 0.00 0.00 0.00 72 1018.6
20260507090804 18 154 1.6 8.0 0.00 0.00 0.00 75 1018.7
20260507085804 18 143 3.2 8.0 0.00 0.00 0.00 76 1018.6
20260507084804 18 143 4.8 9.7 0.00 0.00 0.00 77 1018.6
20260507083805 18 154 4.8 9.7 0.00 0.00 0.00 74 1018.6
20260507082804 18 142 3.2 9.7 0.00 0.00 0.00 76 1018.5
20260507081805 17 214 3.2 8.0 0.00 0.00 0.00 77 1018.5
20260507080804 17 215 0.0 8.0 0.00 0.00 0.00 78 1018.6
20260507075804 17 215 0.0 4.8 0.00 0.00 0.00 78 1018.6
20260507073805 16 215 0.0 9.7 0.00 0.00 0.00 82 1018.6
20260507071805 17 217 4.8 8.0 0.00 0.00 0.00 79 1018.5
20260507070805 16 151 4.8 9.7 0.00 0.00 0.00 80 1018.4
20260507065804 17 167 3.2 9.7 0.00 0.00 0.00 80 1018.4
20260507064804 16 153 1.6 8.0 0.00 0.00 0.00 80 1018.4
20260507062804 17 184 1.6 8.0 0.00 0.00 0.00 74 1018.4
20260507061805 16 250 1.6 8.0 0.00 0.00 0.00 71 1018.2
20260507060804 17 280 0.0 4.8 0.00 0.00 0.00 69 1018.3
20260507055804 16 280 0.0 3.2 0.00 0.00 0.00 70 1018.2
20260507054804 15 281 1.6 4.8 0.00 0.00 0.00 71 1018.4
20260507052805 15 281 0.0 1.6 0.00 0.00 0.00 73 1018.3
20260507050805 15 281 0.0 4.8 0.00 0.00 0.00 74 1018.2
20260507044805 15 282 0.0 1.6 0.00 0.00 0.00 74 1018.0
20260507043804 15 282 0.0 0.0 0.00 0.00 0.00 73 1017.9
20260507041804 15 282 0.0 1.6 0.00 0.00 0.00 73 1017.8
20260507040804 15 282 0.0 0.0 0.00 0.00 0.00 74 1017.7
20260507035804 14 282 0.0 4.8 0.00 0.00 0.00 77 1017.5
20260507034804 13 282 0.0 4.8 0.00 0.00 0.00 78 1017.4
20260507033804 13 215 0.0 1.6 0.00 0.00 0.00 78 1017.4
20260507032804 13 215 0.0 0.0 0.00 0.00 0.00 78 1017.3
20260507031805 13 215 0.0 0.0 0.00 0.00 0.00 79 1017.2
20260507030804 13 215 0.0 1.6 0.00 0.00 0.00 79 1017.1
20260507025804 13 215 0.0 1.6 0.00 0.00 0.00 79 1017.1
20260507023804 14 215 0.0 1.6 0.00 0.00 0.00 78 1016.8
20260507021805 14 215 0.0 0.0 0.00 0.00 0.00 77 1016.6
20260507013805 15 215 0.0 0.0 0.00 0.00 0.00 76 1016.6